Weather History for KMDH - September, 2012

Change the Weather History Date:

Sunday, September 23, 2012

  Actual Average Record
Temperature  
Mean Temperature 52 °F -  
Max Temperature 66 °F 78 °F 94 °F (1939)
Min Temperature 37 °F 51 °F 30 °F (1983)
Degree Days  
Heating Degree Days 14    
Growing Degree Days 2 (Base 50)    
Moisture  
Dew Point 39 °F    
Average Humidity 68    
Maximum Humidity 93    
Minimum Humidity 30    
Precipitation  
Precipitation 0.00 in - - ()
Sea Level Pressure  
Sea Level Pressure 30.27 in    
Wind  
Wind Speed 3 mph (NNW)    
Max Wind Speed 10 mph    
Max Gust Speed -    
Visibility 10 miles    
Events      
Averages and records for this station are not official NWS values.
T = Trace of Precipitation, MM = Missing Value Source: NWS Daily Summary

Daily Weather History Graph

Daily Weather History Graph

Search for Another Location

Airport or City:

Trip Planner

Search our weather history database for the weather conditions in past years. The results will help you decide how hot, cold, wet, or windy it might be!

Date:

Astronomy

Sep. 23, 2012 Rise Set
Actual Time 6:46 AM CDT 6:51 PM CDT
Civil Twilight 6:19 AM CDT 7:17 PM CDT
Nautical Twilight 5:49 AM CDT 7:48 PM CDT
Astronomical Twilight 5:18 AM CDT 8:19 PM CDT
Moon 2:47 PM CDT (9/23) 12:04 AM CDT (9/23)
Length of Visible Light 12h 57m
Length of Day
12h 05m
First Quarter, 60% of the Moon is Illuminated
Sep 23
First Quarter
Sep 29
Full
Oct 8
Last Quarter
Oct 15
New
Oct 21
First Quarter

Hourly Weather History & Observations

Time (CDT) Temp. Windchill Dew Point Humidity Pressure Visibility Wind Dir Wind Speed Gust Speed Precip Events Conditions
12:52 AM 43.0 °F - 39.9 °F 89% 30.22 in 10.0 mi Calm Calm - N/A   Clear
1:52 AM 39.9 °F 37.8 °F 37.9 °F 93% 30.23 in 10.0 mi North 3.5 mph - N/A   Clear
3:52 AM 39.0 °F - 37.0 °F 93% 30.25 in 10.0 mi Calm Calm - N/A   Clear
4:52 AM 39.0 °F - 37.0 °F 93% 30.26 in 10.0 mi Calm Calm - N/A   Clear
5:52 AM 39.0 °F - 37.0 °F 93% 30.27 in 10.0 mi Calm Calm - N/A   Clear
6:52 AM 37.9 °F - 36.0 °F 93% 30.29 in 10.0 mi Calm Calm - N/A   Clear
8:52 AM 50.0 °F - 43.0 °F 77% 30.33 in 10.0 mi NNW 4.6 mph - N/A   Clear
9:52 AM 55.0 °F - 42.1 °F 62% 30.33 in 10.0 mi NNW 3.5 mph - N/A   Clear
10:52 AM 59.0 °F - 41.0 °F 51% 30.32 in 10.0 mi NNW 6.9 mph - N/A   Clear
11:52 AM 62.1 °F - 39.0 °F 43% 30.32 in 10.0 mi NW 10.4 mph - N/A   Clear
1:52 PM 64.9 °F - 37.9 °F 37% 30.29 in 10.0 mi NNW 10.4 mph - N/A   Clear
2:52 PM 66.9 °F - 36.0 °F 32% 30.27 in 10.0 mi North 9.2 mph - N/A   Clear
3:52 PM 66.0 °F - 34.0 °F 30% 30.25 in 10.0 mi North 8.1 mph - N/A   Clear
4:52 PM 66.0 °F - 36.0 °F 33% 30.25 in 10.0 mi North 9.2 mph - N/A   Clear
5:52 PM 64.9 °F - 36.0 °F 34% 30.25 in 10.0 mi NNE 3.5 mph - N/A   Clear
6:52 PM 57.9 °F - 39.9 °F 51% 30.25 in 10.0 mi Calm Calm - N/A   Clear
7:52 PM 51.1 °F - 43.0 °F 74% 30.27 in 10.0 mi Calm Calm - N/A   Clear
8:52 PM 46.9 °F - 42.1 °F 83% 30.28 in 10.0 mi Calm Calm - N/A   Clear
9:52 PM 45.0 °F - 42.1 °F 90% 30.28 in 10.0 mi Calm Calm - N/A   Clear
10:52 PM 44.1 °F - 41.0 °F 89% 30.28 in 10.0 mi Calm Calm - N/A   Clear
11:52 PM 42.1 °F - 39.9 °F 92% 30.27 in 10.0 mi Calm Calm - N/A   Clear